EW8004 Weather Reports


Display with metric or nautical units.
time (UTC)temp
F
wind
direction
speed
MPH
gust
MPH
rain 1hr
in
rain 24hr
in
rain mn
in
humidity
%
barometer
mb
20260503184607 63 192 0.0 0.0 0.00 0.00 0.00 43 1019.5
20260503183057 63 138 0.0 0.0 0.00 0.00 0.00 44 1019.7
20260503181554 62 194 0.0 0.0 0.00 0.00 0.00 45 1019.9
20260503180059 62 5 0.0 0.0 0.00 0.00 0.00 44 1020.1
20260503174553 61 180 0.0 0.0 0.00 0.00 0.00 46 1020.3
20260503173049 61 189 0.0 0.0 0.00 0.00 0.00 44 1020.4
20260503171550 60 14 0.0 0.0 0.00 0.00 0.00 46 1020.6
20260503081531 39 65 0.0 0.0 0.00 0.00 0.00 92 1019.3
20260503071510 41 65 0.0 0.0 0.00 0.00 0.00 91 1018.7
20260503054611 44 65 0.0 0.0 0.00 0.00 0.00 90 1018.3
20260503053056 45 65 0.0 0.0 0.00 0.00 0.00 90 1018.3
20260503051555 45 65 0.0 0.0 0.00 0.00 0.00 90 1018.2
20260503050054 45 65 0.0 0.0 0.00 0.00 0.00 89 1018.2
20260503044552 45 65 0.0 0.0 0.00 0.00 0.00 88 1017.9
20260503043055 46 65 0.0 0.0 0.00 0.00 0.00 88 1017.7
20260503041548 46 65 0.0 0.0 0.00 0.00 0.00 89 1017.7
20260503040051 46 65 0.0 0.0 0.00 0.00 0.00 88 1017.7
20260503034548 46 65 0.0 0.0 0.00 0.00 0.00 88 1017.6
20260503033044 46 65 0.0 0.0 0.00 0.00 0.00 88 1017.5
20260503031544 46 65 0.0 0.0 0.00 0.00 0.00 88 1017.6
20260503030042 46 65 0.0 0.0 0.00 0.00 0.00 88 1017.4
20260503024541 46 65 0.0 0.0 0.00 0.00 0.00 88 1017.5
20260503023039 46 65 0.0 0.0 0.00 0.00 0.00 87 1017.3
20260503021537 46 65 0.0 0.0 0.00 0.00 0.00 86 1017.1
20260503020035 46 65 0.0 0.0 0.00 0.00 0.00 83 1016.9
20260503014532 47 65 0.0 0.0 0.00 0.00 0.00 82 1016.7
20260503013038 48 65 0.0 0.0 0.00 0.00 0.00 80 1016.5
20260503011530 49 65 0.0 0.0 0.00 0.00 0.00 78 1016.4
20260503010028 50 65 0.0 0.0 0.00 0.00 0.00 75 1016.2
20260503004533 51 65 0.0 0.0 0.00 0.00 0.00 74 1016.0
20260503003032 52 65 0.0 0.0 0.00 0.00 0.00 74 1015.8
20260503001524 53 65 0.0 0.0 0.00 0.00 0.00 71 1015.5
20260503000026 54 65 0.0 0.0 0.00 0.00 0.00 67 1015.3
20260502234535 55 65 0.0 0.0 0.00 0.00 0.00 64 1015.1
20260502233031 56 106 0.0 0.0 0.00 0.00 0.00 62 1015.0
20260502231521 56 106 0.0 0.0 0.00 0.00 0.00 61 1014.9
20260502230030 57 81 0.0 0.0 0.00 0.00 0.00 57 1014.9
20260502224520 57 81 0.0 0.0 0.00 0.00 0.00 60 1014.9
20260502223032 58 81 0.0 0.0 0.00 0.00 0.00 63 1014.7
20260502221520 58 82 0.0 0.0 0.00 0.00 0.00 62 1014.6
20260502220023 58 41 0.0 0.0 0.00 0.00 0.00 57 1014.3
20260502214518 59 41 0.0 0.0 0.00 0.00 0.00 58 1014.2
20260502213018 60 41 0.0 0.0 0.00 0.00 0.00 59 1014.1
20260502211518 60 41 0.0 0.0 0.00 0.00 0.00 57 1014.1
20260502210017 60 41 0.0 0.0 0.00 0.00 0.00 59 1014.0
20260502204516 60 103 0.0 0.0 0.00 0.00 0.00 47 1013.9
20260502203015 61 101 0.0 0.0 0.00 0.00 0.00 50 1014.1
20260502201516 61 80 0.0 0.0 0.00 0.00 0.00 50 1014.0
20260502200013 61 117 0.0 0.0 0.00 0.00 0.00 57 1014.2
20260502194528 63 117 0.0 0.0 0.00 0.00 0.00 50 1014.1
20260502193013 62 105 0.0 0.0 0.00 0.00 0.00 44 1014.2
20260502191512 63 94 0.0 0.0 0.00 0.00 0.00 44 1014.2
20260502190012 63 100 0.0 0.0 0.00 0.00 0.00 45 1014.2